CAPE
0 0 0 0 22 63 40 58 21 0 0 58 192 227 115 473 412 488 542 542 481 544 590 601 713 768 915 808 995 1245 1115 1227 992 896 890 955 1153 1389 1701 2003 2009 1776 1707 1547
0 0 0 0 21 76 67 28 3 0 0 57 80 133 69 483 505 410 357 483 536 476 441 237 276 438 707 774 816 1028 1329 1568 1263 1098 1135 1120 1304 1382 1574 2026 1888 1681 1182 658
0 0 0 0 4 111 95 34 2 0 0 2 79 138 168 206 476 592 530 408 440 519 507 451 196 173 327 576 662 889 1554 1850 1538 1463 1294 1347 1635 1795 1677 1851 1508 990 621 1340
0 0 0 0 0 109 124 78 0 0 0 0 0 1 144 20 337 417 524 565 506 503 491 562 565 282 291 418 591 774 1034 1380 1445 1484 1466 2008 1625 1596 1672 2050 2032 1621 1154 1631
0 0 0 0 0 0 42 0 4 0 0 0 0 0 0 0 4 52 441 522 592 554 545 525 565 536 393 389 481 710 1045 1209 1567 1431 2058 1845 1891 1526 1828 1890 1964 1891 2077 2183
0 0 0 0 0 0 0 0 0 0 0 0 0 0 0 0 0 2 315 556 550 568 597 544 546 656 488 415 466 659 1064 1455 1545 1522 1621 2396 2345 1829 2023 2236 2210 2380 2259 1744
0 0 0 0 0 0 0 0 0 0 0 0 0 0 0 0 0 0 117 96 671 633 579 638 621 732 599 578 542 717 1238 1703 1513 1624 1715 1832 2077 2085 2289 2462 2372 2840 1761 1136
0 0 0 0 0 0 0 0 0 0 0 0 0 0 0 0 35 193 360 318 569 794 774 662 630 713 715 674 663 782 1072 1665 1487 1548 1796 1972 1934 1698 1836 2338 2442 2681 2363 1233
0 0 0 0 0 0 0 0 0 0 0 0 0 0 0 12 383 405 431 492 674 824 944 875 629 711 727 682 833 883 1064 1355 1439 1479 1841 1781 1795 1854 1753 2189 1969 1698 1230 773
0 0 0 0 0 0 0 0 0 0 0 0 0 0 0 130 167 362 537 464 475 513 506 561 616 509 512 627 684 766 993 1245 1257 1318 1523 1498 1595 1893 2117 2147 1711 1505 752 671
0 0 0 0 0 0 0 0 0 0 0 0 0 0 0 1 10 45 265 437 427 395 414 515 554 605 547 652 730 743 869 1076 1140 1194 1354 1504 1656 1774 1963 1352 1361 974 686 425
0 0 0 0 0 0 0 0 0 0 0 0 0 0 0 17 24 40 162 54 48 127 238 539 235 385 590 778 956 1061 952 1000 1130 1389 1630 1752 1859 1662 1929 1410 1426 1342 837 786
0 0 0 0 0 0 0 0 0 0 0 0 0 0 0 496 364 74 216 323 178 214 295 387 449 443 866 860 1512 1367 1426 1338 1135 1513 1452 1157 1481 1530 1728 1210 1297 1340 1150 874
0 0 0 0 0 0 0 0 0 0 0 0 0 0 50 984 721 1153 1671 1161 972 752 470 422 447 477 513 894 1213 1441 1840 1779 2108 2035 1978 1914 1540 1305 1882 1636 1174 1076 783 414
0 0 0 0 0 0 0 0 0 0 0 0 43 34 817 1191 1419 1690 1882 1775 1952 2275 1702 842 640 695 710 650 1208 1550 2052 2704 2599 2545 2607 2093 2042 1793 1783 1529 1369 880 441 172
0 0 2 0 0 169 364 242 3 6 2 596 346 559 1322 1413 1807 1439 1159 1449 1840 1707 2495 2537 2482 2317 1569 654 1074 1764 2081 2868 2267 2734 2647 2457 2133 2221 1768 1462 1043 711 440 259
0 0 17 19 0 0 67 175 298 672 584 596 309 815 1409 1701 1668 1053 1174 872 643 623 854 1544 2585 3010 2367 1618 1654 2121 2204 2086 1547 1512 1156 1774 2281 1376 1301 1133 794 711 311 279
0 0 0 10 1 0 0 288 253 516 705 583 850 1135 1345 1183 1128 1067 940 762 942 915 545 459 1054 2346 2854 2086 1806 2577 2576 2631 2831 2369 2400 1817 1838 1580 1439 1173 764 502 435 288
0 0 0 30 15 0 174 297 634 779 743 864 1013 925 1093 1253 1027 854 594 404 612 824 765 411 353 1382 2938 2793 2651 2767 2819 2796 2771 2917 2869 2689 1579 1610 1450 1230 843 480 523 450
0 0 0 0 0 8 59 128 229 114 138 847 854 553 432 308 560 369 190 162 212 497 847 817 812 697 2176 2913 2955 2977 2964 2894 3187 3054 2876 2346 1883 1783 1580 1311 775 596 592 514
24 7 0 0 0 0 0 82 177 257 105 397 762 292 154 122 51 13 179 185 210 464 755 1330 1937 1057 2182 3251 3089 3110 3043 3003 2955 2959 2704 2096 1932 1459 1031 859 629 666 627 585
16 58 16 0 0 0 0 20 228 272 243 702 676 402 48 89 63 87 150 192 366 557 1042 2045 2505 2360 2187 3366 3465 3508 3266 3052 3145 2923 2440 1958 1565 1323 817 383 427 521 564 642
11 0 51 4 60 1 0 11 11 0 270 390 389 100 63 1 3 66 140 213 271 318 1860 2689 2817 2700 2893 3219 3598 3581 3715 3170 2578 2100 1998 2024 1824 1263 749 144 33 23 391 451
0 0 0 51 15 7 0 6 0 6 3 49 8 7 0 1 1 19 47 66 102 447 2061 2264 2722 2879 2855 3018 3311 3253 2979 2571 2312 2136 2041 1967 1663 842 579 40 98 0 38 412
0 0 0 3 3 78 38 39 35 0 0 24 100 86 0 0 5 26 67 181 214 732 1965 2000 2268 2486 2612 2293 2461 2564 2702 2330 2116 1967 1676 1272 857 718 426 305 131 11 0 2
0 0 0 0 0 167 237 8 0 68 10 11 80 143 0 0 23 43 146 324 381 932 1875 1818 2014 2119 2093 2004 1991 1735 1976 1914 2095 2154 1194 978 688 433 182 134 106 53 46 150
CIN
-0 -0 -0 -0 -133 -100 -123 -93 -51 -0 -0 -146 -113 -99 -186 -285 -170 -173 -136 -103 -58 -235 -195 -182 -175 -107 -95 -126 -130 -133 -127 -120 -137 -127 -97 -75 -54 -42 -30 -36 -62 -64 -60 -58
-0 -0 -0 -0 -121 -62 -78 -81 -116 -0 -0 -108 -134 -100 -163 -232 -280 -262 -229 -166 -121 -59 -40 -224 -251 -190 -124 -138 -155 -152 -142 -120 -132 -94 -86 -72 -57 -47 -35 -39 -58 -65 -83 -108
-0 -0 -0 -0 -34 -32 -38 -49 -31 -0 -0 -39 -127 -79 -157 -233 -307 -320 -326 -293 -187 -128 -65 -36 -208 -240 -191 -168 -189 -178 -161 -135 -123 -105 -102 -80 -56 -52 -58 -46 -71 -110 -135 -65
-0 -0 -0 -0 -0 -30 -7 -6 -0 -0 -0 -0 -0 -2 -43 -203 -212 -333 -309 -325 -281 -248 -108 -66 -41 -202 -200 -187 -179 -184 -185 -182 -146 -139 -88 -53 -34 -29 -37 -26 -46 -67 -95 -50
-0 -0 -0 -0 -0 -0 -42 -0 -3 -0 -0 -0 -0 -0 -0 -6 -36 -45 -278 -311 -315 -287 -209 -81 -41 -30 -171 -190 -193 -186 -204 -203 -149 -161 -84 -70 -42 -30 -25 -39 -51 -55 -38 -19
-0 -0 -0 -0 -0 -0 -0 -0 -0 -0 -0 -0 -0 -0 -0 -0 -0 -86 -292 -332 -314 -289 -255 -191 -34 -38 -202 -227 -243 -197 -227 -213 -192 -180 -138 -73 -51 -48 -31 -37 -33 -27 -23 -40
-0 -0 -0 -0 -0 -0 -0 -0 -0 -0 -0 -0 -0 -0 -0 -0 -0 -0 -324 -352 -346 -288 -267 -219 -25 -29 -88 -242 -244 -246 -249 -206 -221 -193 -155 -120 -74 -53 -35 -38 -26 -32 -47 -75
-0 -0 -0 -0 -0 -0 -0 -0 -0 -0 -0 -0 -0 -0 -0 -0 -147 -351 -408 -127 -361 -291 -252 -247 -21 -37 -29 -246 -274 -272 -302 -208 -232 -202 -169 -122 -82 -54 -45 -54 -60 -42 -41 -57
-0 -0 -0 -0 -0 -0 -0 -0 -0 -0 -0 -0 -0 -0 -0 -76 -162 -231 -273 -134 -281 -249 -239 -232 -47 -43 -35 -129 -291 -315 -299 -267 -271 -212 -176 -160 -121 -92 -63 -55 -88 -62 -74 -108
-0 -0 -0 -0 -0 -0 -0 -0 -0 -0 -0 -0 -0 -0 -0 -60 -89 -133 -190 -204 -231 -98 -101 -237 -290 -205 -181 -205 -287 -301 -297 -313 -283 -233 -210 -164 -139 -100 -88 -92 -99 -73 -36 -108
-0 -0 -0 -0 -0 -0 -0 -0 -0 -0 -0 -0 -0 -0 -0 -19 -78 -270 -232 -256 -269 -237 -220 -269 -300 -322 -315 -312 -295 -305 -302 -326 -274 -260 -245 -171 -129 -114 -107 -174 -94 -38 -100 -128
-0 -0 -0 -0 -0 -0 -0 -0 -0 -0 -0 -0 -0 -0 -0 -341 -55 -74 -251 -351 -393 -387 -282 -271 -342 -385 -374 -329 -313 -321 -316 -334 -310 -279 -268 -271 -174 -91 -72 -65 -103 -73 -83 -56
-0 -0 -0 -0 -0 -0 -0 -0 -0 -0 -0 -0 -0 -0 -0 -185 -189 -342 -360 -381 -420 -390 -312 -313 -323 -402 -336 -360 -327 -316 -302 -307 -313 -313 -294 -355 -364 -255 -146 -101 -117 -75 -44 -29
-0 -0 -0 -0 -0 -0 -0 -0 -0 -0 -0 -0 -0 -0 -41 -150 -229 -256 -273 -338 -218 -205 -330 -292 -343 -390 -435 -376 -391 -339 -283 -288 -251 -257 -257 -291 -325 -320 -150 -85 -91 -90 -92 -112
-0 -0 -0 -0 -0 -0 -0 -0 -0 -0 -0 -0 -51 -51 -108 -239 -281 -297 -259 -262 -273 -228 -237 -292 -275 -366 -427 -464 -418 -379 -278 -212 -237 -255 -252 -313 -242 -204 -177 -132 -63 -90 -142 -197
-0 -0 -33 -1 -0 -57 -72 -137 -2 -61 -2 -105 -134 -79 -206 -263 -238 -229 -280 -252 -233 -288 -223 -242 -252 -291 -373 -503 -500 -407 -331 -209 -299 -129 -265 -226 -207 -173 -214 -177 -155 -126 -172 -217
-0 -13 -77 -27 -0 -0 -31 -59 -84 -125 -174 -86 -32 -75 -164 -149 -199 -197 -241 -278 -310 -370 -114 -304 -197 -176 -271 -105 -449 -381 -368 -357 -371 -435 -495 -349 -227 -314 -321 -144 -218 -178 -78 -263
-0 -0 -0 -28 -7 -0 -0 -207 -192 -100 -148 -189 -161 -99 -93 -119 -69 -69 -65 -99 -263 -310 -380 -268 -267 -177 -214 -160 -226 -316 -296 -254 -200 -237 -166 -295 -291 -344 -299 -143 -83 -257 -80 -119
-0 -0 -0 -26 -19 -0 -71 -161 -96 -40 -25 -149 -75 -57 -40 -45 -28 -112 -34 -40 -300 -331 -397 -241 -26 -268 -225 -256 -319 -260 -223 -183 -148 -136 -95 -130 -303 -293 -233 -101 -137 -128 -76 -62
-0 -0 -0 -0 -0 -47 -25 -113 -81 -94 -12 -132 -126 -57 -23 -47 -38 -84 -172 -173 -357 -337 -350 -394 -222 -400 -198 -186 -198 -208 -207 -156 -122 -113 -106 -143 -191 -248 -206 -77 -142 -114 -54 -49
-94 -62 -0 -0 -0 -0 -0 -168 -45 -15 -16 -168 -151 -180 -85 -131 -217 -400 -149 -181 -333 -343 -320 -295 -227 -317 -222 -140 -160 -127 -123 -141 -136 -135 -141 -137 -102 -65 -97 -63 -61 -40 -34 -37
-20 -53 -38 -0 -0 -0 -0 -118 -37 -121 -291 -210 -223 -225 -260 -266 -328 -177 -144 -281 -258 -254 -201 -118 -136 -162 -159 -62 -55 -57 -89 -102 -60 -94 -77 -128 -128 -102 -81 -10 -10 -21 -36 -20
-101 -0 -74 -14 -63 -11 -0 -228 -54 -0 -185 -209 -209 -247 -272 -32 -310 -283 -255 -260 -285 -278 -90 -75 -89 -101 -95 -84 -41 -49 -58 -74 -90 -79 -121 -55 -77 -74 -85 -209 -56 -5 -2 -28
-0 -0 -0 -170 -144 -157 -0 -278 -0 -306 -16 -259 -185 -51 -0 -59 -121 -295 -275 -236 -244 -169 -80 -87 -77 -68 -81 -109 -97 -94 -89 -120 -137 -99 -96 -74 -45 -46 -123 -170 -62 -24 -70 -0
-0 -0 -0 -90 -61 -185 -124 -223 -232 -0 -0 -277 -222 -194 -0 -0 -225 -252 -223 -159 -180 -132 -114 -119 -104 -99 -108 -161 -128 -89 -70 -94 -98 -70 -71 -88 -76 -77 -47 -42 -83 -62 -0 -101
-0 -0 -0 -0 -0 -86 -82 -207 -28 -186 -166 -158 -162 -129 -0 -0 -220 -181 -152 -118 -150 -119 -119 -135 -116 -114 -124 -125 -85 -69 -27 -22 -11 -9 -38 -34 -51 -67 -28 -19 -45 -33 -119 -71
Wind_Speed
nan nan nan nan nan nan nan nan nan nan nan nan 5 13 4 13 18 21 25 28 32 32 26 23 26 26 22 21 21 15 11 8 4 2 3 5 4 1 2 2 2 2 5 6
nan nan nan nan nan nan nan nan nan nan nan nan nan 12 nan 13 19 22 26 26 28 29 19 21 23 21 23 19 20 17 15 9 6 3 3 4 2 3 3 6 4 6 7 4
nan nan nan nan nan 20 nan nan nan nan nan nan nan 4 6 6 8 11 19 23 27 27 23 19 21 21 20 17 18 18 17 13 8 5 2 2 3 5 6 9 10 11 9 8
nan nan nan nan nan 17 13 nan nan nan nan nan nan nan 9 nan 7 3 16 23 25 25 20 17 18 21 22 20 15 15 14 14 10 7 3 3 1 1 7 12 14 14 11 10
nan nan nan nan nan nan nan nan nan nan nan nan nan nan nan nan nan nan 12 18 22 21 23 17 17 20 20 15 15 15 15 14 12 11 7 7 5 6 11 16 19 17 17 15
nan nan nan nan nan nan nan nan nan nan nan nan nan nan nan nan nan nan 4 6 10 16 20 18 15 14 15 15 12 14 18 20 20 17 14 12 11 11 14 17 18 19 20 19
nan nan nan nan nan nan nan nan nan nan nan nan nan nan nan nan nan nan 15 nan 7 11 13 13 13 11 10 15 15 14 16 18 23 22 19 15 13 14 14 15 17 20 22 23
nan nan nan nan nan nan nan nan nan nan nan nan nan nan nan nan nan 5 5 2 13 23 16 15 14 12 4 9 15 16 18 17 21 22 22 16 14 10 12 12 13 19 24 24
nan nan nan nan nan nan nan nan nan nan nan nan nan nan nan nan 10 7 9 13 19 23 22 19 15 18 11 4 13 14 19 18 18 18 15 14 13 14 12 11 13 19 21 21
nan nan nan nan nan nan nan nan nan nan nan nan nan nan nan 11 16 12 6 9 14 16 15 10 14 13 3 5 5 11 18 22 17 19 16 10 8 11 12 13 17 28 28 23
nan nan nan nan nan nan nan nan nan nan nan nan nan nan nan nan nan nan 13 15 16 16 9 7 14 14 7 1 6 11 18 21 22 21 21 17 17 21 20 17 10 23 29 32
nan nan nan nan nan nan nan nan nan nan nan nan nan nan nan nan nan nan 16 nan nan 10 7 10 15 12 7 11 10 15 21 22 24 27 28 27 26 20 14 18 22 24 27 31
nan nan nan nan nan nan nan nan nan nan nan nan nan nan nan 16 16 nan 17 10 7 11 14 15 15 10 10 6 13 19 21 23 28 30 25 19 16 21 20 20 20 22 26 27
nan nan nan nan nan nan nan nan nan nan nan nan nan nan nan 19 17 19 21 18 16 12 12 20 15 14 12 11 15 19 21 25 29 29 29 26 22 19 22 21 18 19 22 24
nan nan nan nan nan nan nan nan nan nan nan nan nan nan 4 14 17 19 22 23 20 19 17 16 19 18 13 15 13 13 20 25 29 30 27 25 21 15 25 26 19 18 22 23
nan nan nan nan nan 19 27 22 nan nan nan 18 16 12 9 7 12 19 22 23 24 23 20 19 20 22 14 15 17 20 23 25 28 14 25 27 28 20 24 26 26 22 22 24
nan nan nan nan nan nan nan 21 18 19 20 20 18 22 22 24 22 14 15 22 21 22 18 20 22 28 25 21 27 29 32 29 21 24 26 25 26 22 24 26 27 23 24 26
nan nan nan nan nan nan nan 16 16 17 20 19 21 24 28 28 26 22 12 20 22 21 18 23 21 27 32 31 32 35 38 35 26 22 25 21 21 29 29 28 25 24 24 29
nan nan nan nan nan nan 7 9 14 19 25 25 29 33 36 32 28 19 15 18 20 21 18 16 16 28 31 30 33 34 39 39 28 23 25 27 28 29 33 33 30 25 26 27
nan nan nan nan nan nan nan 13 15 17 14 26 27 27 26 25 19 20 16 16 14 17 18 19 25 24 32 36 33 37 34 35 36 28 22 25 30 33 34 35 35 29 29 29
nan nan nan nan nan nan nan nan 21 20 19 27 30 31 29 23 nan nan 16 14 13 11 13 18 24 28 34 34 36 33 39 42 36 40 39 39 34 35 35 37 33 30 26 30
nan nan nan nan nan nan nan nan 18 25 24 25 28 30 nan nan nan nan 22 19 16 14 16 20 20 21 29 31 33 37 43 43 43 53 49 51 54 51 57 53 51 33 32 32
nan nan nan nan nan nan nan nan nan nan 24 25 28 27 nan nan nan nan 25 22 17 18 17 18 21 22 20 21 24 21 30 41 49 62 65 58 63 63 61 70 nan nan 43 29
nan nan nan nan nan nan nan nan nan nan nan nan nan nan nan nan nan nan nan nan 23 20 19 19 20 19 17 18 17 17 23 34 46 53 58 63 64 62 58 nan nan nan nan 25
nan nan nan nan nan nan nan nan nan nan nan nan 27 nan nan nan nan nan nan 20 24 22 22 22 22 23 20 18 17 16 19 28 38 45 50 57 58 58 62 58 55 nan nan nan
nan nan nan nan nan 19 18 nan nan nan nan nan nan 26 nan nan nan nan 19 22 23 21 21 21 21 21 23 22 23 21 22 29 33 38 42 42 49 50 56 56 56 nan nan 24
Wind_Direction
nan nan nan nan nan nan nan nan nan nan nan nan 91 129 127 40 49 32 17 9 10 22 30 33 29 36 41 45 47 52 52 58 72 59 78 91 90 57 156 187 131 2 351 9
nan nan nan nan nan nan nan nan nan nan nan nan nan 151 nan 7 30 35 24 16 11 16 24 33 31 22 28 33 42 36 50 48 52 82 119 139 138 156 184 189 232 278 316 329
nan nan nan nan nan 252 nan nan nan nan nan nan nan 231 259 292 20 51 35 19 18 12 12 19 24 20 20 25 26 28 27 34 48 34 310 196 194 218 237 247 263 293 298 304
nan nan nan nan nan 239 240 nan nan nan nan nan nan nan 255 nan 267 27 21 21 21 7 10 33 24 21 19 29 27 23 10 9 15 2 355 7 91 205 254 268 276 285 298 302
nan nan nan nan nan nan nan nan nan nan nan nan nan nan nan nan nan nan 3 14 32 17 16 18 25 24 22 19 27 29 13 353 336 335 336 319 314 275 275 281 293 300 301 304
nan nan nan nan nan nan nan nan nan nan nan nan nan nan nan nan nan nan 149 84 33 18 7 21 38 34 14 359 6 14 12 2 342 326 320 315 307 297 287 298 306 310 310 300
nan nan nan nan nan nan nan nan nan nan nan nan nan nan nan nan nan nan 156 nan 353 352 349 347 356 35 9 347 347 349 2 3 355 352 341 322 317 316 313 318 315 313 316 306
nan nan nan nan nan nan nan nan nan nan nan nan nan nan nan nan nan 139 176 318 323 332 319 318 320 315 2 333 328 344 346 352 359 11 1 354 353 357 346 342 345 333 333 292
nan nan nan nan nan nan nan nan nan nan nan nan nan nan nan nan 198 259 266 290 308 315 314 336 350 320 303 292 318 338 337 341 354 353 353 350 13 22 17 8 351 337 325 296
nan nan nan nan nan nan nan nan nan nan nan nan nan nan nan 174 198 214 235 267 282 304 304 354 340 340 289 291 292 320 325 331 341 332 340 12 21 13 1 358 5 342 354 309
nan nan nan nan nan nan nan nan nan nan nan nan nan nan nan nan nan nan 227 266 282 315 308 11 12 4 11 228 293 307 299 318 321 323 327 336 5 357 9 28 347 23 15 17
nan nan nan nan nan nan nan nan nan nan nan nan nan nan nan nan nan nan 247 nan nan 325 303 338 358 12 349 330 294 290 295 306 313 316 326 336 335 336 354 21 26 15 9 12
nan nan nan nan nan nan nan nan nan nan nan nan nan nan nan 230 240 nan 258 250 295 324 309 297 305 342 330 311 286 281 289 304 314 325 344 19 356 327 332 5 18 9 6 8
nan nan nan nan nan nan nan nan nan nan nan nan nan nan nan 216 217 237 263 279 298 310 299 292 289 294 300 287 266 280 284 298 308 324 342 353 332 340 338 344 2 4 4 354
nan nan nan nan nan nan nan nan nan nan nan nan nan nan 180 195 217 235 259 267 273 266 266 273 281 289 314 300 264 272 286 300 309 324 340 342 331 325 316 317 336 346 356 350
nan nan nan nan nan 252 245 243 nan nan nan 277 287 306 282 284 288 258 253 252 257 267 260 249 258 255 264 301 299 293 295 302 313 287 336 330 326 318 301 311 317 345 345 334
nan nan nan nan nan nan nan 238 240 250 264 274 281 284 294 299 296 287 236 223 235 243 241 239 252 250 254 278 293 298 303 313 312 330 326 323 311 311 304 300 315 335 330 325
nan nan nan nan nan nan nan 238 242 244 262 279 281 289 290 291 294 298 251 215 216 226 224 214 230 244 252 262 277 293 303 309 322 337 317 311 319 307 303 300 310 320 316 318
nan nan nan nan nan nan 309 301 281 269 267 287 285 284 284 285 297 297 257 234 221 213 223 231 218 220 232 257 272 279 289 301 301 318 310 305 310 302 299 301 298 300 302 312
nan nan nan nan nan nan nan 283 285 277 277 295 293 294 285 287 294 273 253 237 226 225 230 227 232 230 229 239 260 273 281 286 288 290 294 295 300 298 297 283 281 286 299 309
nan nan nan nan nan nan nan nan 276 288 280 291 303 295 292 287 nan nan 257 262 269 255 229 237 244 254 253 265 256 259 276 279 273 271 276 283 282 279 265 257 253 272 277 284
nan nan nan nan nan nan nan nan 293 265 267 276 286 286 nan nan nan nan 265 268 270 269 267 264 264 255 264 272 272 268 267 258 260 264 262 269 270 269 267 253 235 228 251 266
nan nan nan nan nan nan nan nan nan nan 274 275 277 274 nan nan nan nan 266 275 280 265 267 273 268 267 268 273 284 278 266 260 259 262 269 273 274 275 287 289 nan nan 234 229
nan nan nan nan nan nan nan nan nan nan nan nan nan nan nan nan nan nan nan nan 281 270 284 289 289 284 285 282 263 261 261 262 265 272 274 277 274 276 276 nan nan nan nan 227
nan nan nan nan nan nan nan nan nan nan nan nan 277 nan nan nan nan nan nan 277 278 286 299 303 308 310 304 298 285 267 263 270 264 262 269 268 264 270 276 273 280 nan nan nan
nan nan nan nan nan 251 259 nan nan nan nan nan nan 286 nan nan nan nan 283 283 284 288 291 298 305 307 311 312 298 286 291 286 278 277 270 263 265 263 267 273 273 nan nan 233